#timestamp,LO_Frequency,Hit,StdDev 
1698548415.3,286047002.4,N
1698548435.1,286047002.7,N
1698548455.9,286047002.8,N
1698548475.7,286047002.8,N
1698548495.5,286046999.9,N
1698548515.4,286047002.4,N
1698548535.2,286047000.6,N
1698548555.0,286047000.3,N
1698548556.0,286047000.3,N
1698548575.8,286046999.7,N
1698548595.6,286046998.6,N
1698548615.5,286046998.1,N
1698548635.3,286047000.0,N
1698548655.2,286047000.2,N
1698548675.9,286047000.1,N
1698548695.7,286046999.9,N
1698548715.6,286047002.3,N
1698548735.4,286047001.9,N
1698548755.3,286047002.1,N
1698548775.1,286047002.7,N
1698548795.8,286047001.8,N
1698548815.7,286047001.8,N
1698548835.5,286047001.5,N
1698548855.4,286047002.5,N
1698548875.2,286047002.8,N
1698548895.0,286046999.8,N
1698548895.9,286046999.8,N
1698548915.8,286047000.3,N
1698548935.6,286047000.1,N
1698548955.4,286047000.0,N
1698548975.3,286046998.2,N
1698548995.1,286047000.6,N
1698549015.9,286047000.1,N
1698549035.7,286047001.0,N
1698549055.5,286047000.2,N
1698549075.4,286047000.2,N
1698549095.2,286047002.8,N
1698549115.0,286047002.4,N
1698549115.9,286047002.4,N
1698549135.8,286047002.0,N
1698549155.6,286047001.4,N
1698549175.5,286047001.4,N
1698549195.3,286047002.2,N
1698549215.1,286047002.5,N
1698549235.9,286047002.8,N
1698549255.7,286046999.9,N
1698549275.6,286046999.7,N
1698549295.4,286047000.0,N
1698549315.2,286047002.6,N
1698549335.1,286047002.7,N
1698549336.0,286047002.7,N
1698549355.8,286047002.6,N
1698549375.6,286047000.5,N
1698549395.5,286047000.1,N
1698549415.3,286047000.3,N
1698549435.2,286047000.8,N
1698549455.9,286046998.1,N
1698549475.7,286047001.0,N
1698549495.6,286047000.7,N
1698549515.4,286046998.3,N
1698549535.2,286046998.1,N
1698549555.1,286047000.8,N
1698549556.0,286047000.8,N
1698549575.8,286047000.4,N
1698549595.7,286046998.7,N
1698549615.5,286046999.3,N
1698549635.4,286046999.2,N
1698549655.2,286046997.5,N
1698549675.0,286046997.9,N
1698549675.9,286046997.9,N
1698549695.8,286046995.2,N
1698549715.6,286046995.7,N
1698549735.4,286046996.0,N
1698549755.3,286046995.3,N
1698549775.1,286046998.0,N
1698549795.9,286046995.7,N
1698549815.7,286046996.4,N
1698549835.5,286046996.3,N
1698549855.4,286046993.4,N
1698549875.2,286046994.2,N
1698549895.1,286046993.8,N
1698549896.0,286046993.8,N
1698549915.8,286046996.4,N
1698549935.6,286046993.8,N
1698549955.5,286046993.7,N
1698549975.3,286046994.2,N
1698549995.1,286046994.2,N
1698550015.9,286046991.7,Y
1698550035.7,286046996.2,P
1698550055.6,286046995.8,P
1698550075.4,286046997.4,P
1698550095.3,286046997.1,Y
1698550115.1,286046998.9,P
1698550116.0,286046998.9,N
1698550135.8,286046998.3,N
1698550155.7,286046999.2,N
1698550175.5,286046999.3,N
1698550195.4,286046999.4,N
1698550215.2,286046996.6,Y
1698550235.0,286046999.3,P
1698550235.9,286046999.3,N
1698550255.8,286046998.7,P
1698550275.6,286046999.0,Y
1698550295.5,286046998.9,P
1698550315.3,286047001.1,P
1698550335.1,286047000.6,N
1698550355.9,286047000.7,N
1698550375.7,286046998.1,N
1698550395.5,286046998.2,N
1698550415.4,286046998.7,N
1698550435.2,286046997.4,N
1698550455.1,286046997.7,N
1698550456.0,286046997.7,N
1698550475.8,286046995.1,Y
1698550495.6,286046996.9,P
1698550515.5,286046999.1,N
1698550535.3,286046996.7,P
1698550555.1,286046997.2,N
1698550575.9,286046996.7,Y
1698550595.7,286046998.3,P
1698550615.6,286046998.8,P
1698550635.4,286046999.0,N
1698550655.2,286047000.7,N
1698550675.1,286047000.8,N
1698550676.0,286047000.8,N
1698550695.8,286046998.4,N
1698550715.7,286047001.1,N
1698550735.5,286047000.8,N
1698550755.3,286046999.0,N
1698550775.2,286047001.2,N
1698550795.0,286046999.3,N
1698550795.9,286046999.3,N
1698550815.7,286046998.9,N
1698550835.6,286046998.9,N
1698550855.4,286047000.8,N
1698550875.3,286047001.1,N
1698550895.1,286046998.5,N
1698550896.0,286046998.5,N
1698550915.8,286046998.2,N
1698550935.7,286047001.1,N
1698550955.5,286047000.3,N
1698550975.4,286047001.2,N
1698550995.2,286046998.7,N
1698551015.0,286047000.8,N
1698551015.9,286047000.8,N
1698551035.8,286047001.0,N
1698551055.6,286046998.7,N
1698551075.4,286046999.3,N
1698551095.3,286046999.4,N
1698551115.1,286046996.9,N
1698551135.9,286046996.8,N
1698551155.7,286046997.4,N
1698551175.6,286046997.7,N
1698551195.4,286046999.5,N
1698551215.2,286046996.9,N
1698551235.1,286046996.5,N
1698551236.0,286046996.5,N
1698551255.8,286046999.2,N
1698551275.7,286046999.3,N
1698551295.5,286046997.9,N
1698551315.3,286046998.0,N
1698551335.2,286046997.4,N
1698551355.0,286046998.0,N
1698551355.9,286046998.0,N
1698551375.8,286046995.5,Y
1698551395.6,286046999.2,P
1698551415.4,286046999.2,P
1698551435.3,286046999.4,P
1698551455.1,286046999.1,Y
1698551475.8,286047000.1,P
1698551495.7,286047001.4,N
1698551515.5,286047000.2,N
1698551535.4,286047000.0,N
1698551555.2,286047000.6,N
1698551575.0,286046999.9,N
1698551575.9,286046999.9,N
1698551595.8,286047002.2,Y
1698551615.6,286047002.2,P
1698551635.4,286047001.5,N
1698551655.3,286047002.5,N
1698551675.1,286047002.6,N
1698551695.9,286047002.3,N
1698551715.7,286047002.3,N
1698551735.5,286047002.3,N
1698551755.4,286046999.9,N
1698551775.2,286047000.2,N
1698551795.0,286046999.9,N
1698551796.0,286046999.9,N
1698551815.8,286046999.8,N
1698551835.6,286047000.1,N
1698551855.5,286047001.1,N
1698551875.3,286047001.1,N
1698551895.1,286046998.1,N
1698551915.9,286046998.1,N
1698551935.7,286046998.8,N
1698551955.5,286046998.1,N
1698551975.4,286046998.8,N
1698551995.2,286046998.7,N
